Simultaneous Nadir Overpasses (SNOs) Predictions

Prediction of SNOs between METOP-B and NOAA-19 Satellite Orbit:

Table of predicted SNOs for the next 14.0 days since TLE Epoch: 8/4/2017
Index Date (METOP-B) Time (METOP-B) Lat,Lon (METOP-B) SZA (METOP-B ) Date (NOAA-19) Time (NOAA-19) Lat,Lon (NOAA-19) SZA (NOAA-19 ) Distance(km) Time Diff (sec)
1 08/07/2017 10:33:41 77.44, 27.12 61.11 08/07/2017 10:32:39 77.43, 27.13 61.09 1.50 62
2 08/07/2017 11:24:22 -77.42,-165.64 118.91 08/07/2017 11:23:34 -77.42,-165.56 118.91 1.88 48
3 08/07/2017 12:15:02 77.42, 1.69 61.11 08/07/2017 12:14:39 77.40, 1.73 61.09 1.95 23
4 08/07/2017 13:05:44 -77.40, 168.93 118.91 08/07/2017 13:05:35 -77.40, 169.04 118.91 2.63 9
5 08/07/2017 13:56:24 77.40, -23.74 61.10 08/07/2017 13:56:40 77.38, -23.67 61.09 2.52 16
6 08/07/2017 14:47:06 -77.38, 143.50 118.91 08/07/2017 14:47:36 -77.38, 143.64 118.91 3.38 30
7 08/07/2017 15:37:46 77.38, -49.17 61.10 08/07/2017 15:38:41 77.36, -49.07 61.09 3.14 55
8 08/07/2017 16:28:28 -77.36, 118.08 118.91 08/07/2017 16:29:38 -77.39, 118.05 118.87 3.77 70
9 08/18/2017 05:01:28 77.47, 110.25 64.41 08/18/2017 05:00:25 77.48, 110.22 64.42 2.05 63
10 08/18/2017 05:52:10 -77.47, -82.43 115.58 08/18/2017 05:51:23 -77.45, -82.36 115.60 2.26 47
11 08/18/2017 06:42:50 77.45, 84.82 64.41 08/18/2017 06:42:26 77.46, 84.82 64.43 1.83 24
12 08/18/2017 07:33:32 -77.45,-107.86 115.58 08/18/2017 07:33:24 -77.43,-107.76 115.60 2.91 8
13 08/18/2017 08:24:12 77.43, 59.39 64.41 08/18/2017 08:24:27 77.44, 59.42 64.43 1.87 15
14 08/18/2017 09:14:54 -77.42,-133.29 115.58 08/18/2017 09:15:26 -77.45,-133.36 115.56 3.09 32
15 08/18/2017 10:05:34 77.41, 33.96 64.41 08/18/2017 10:06:28 77.42, 34.01 64.43 2.14 54
16 08/18/2017 10:56:16 -77.40,-158.71 115.58 08/18/2017 10:57:27 -77.43,-158.76 115.55 2.63 71




NCC Satellite Simultaneous Nadir Overpasses (SNOs) Prediction Service
